Starlink 31254

operational
NORAD ID: 58892 Int'l Des: 2024-020 Owner: SPXS Country: US Constellation: starlink
LEOCIRCULAR

关于 Starlink 31254

正在加载描述...

实时位置

正在加载3D地球...

即将过境

高度历史

Altitude vs Time

uPlot chart will show altitude changes over time

两行轨道根数

1 58892U 24020S 25304.83336806 .00212865 00000-0 47575-2 0 9995
2 58892 53.1555 199.6754 0009662 172.9855 82.3938 15.42181174 5911
Epoch: Oct 31, 2025 • Age: 23 hours

当前状态

高度 433.6 km
速度 7.66 km/s
星下点 -4.60°S, 51.85°E
发射日期 Jan 29, 2024
运行时间 1.7 years
类型 internet

技术详情

分类 Payload
质量 730.00 kg
干质量 700.00 kg
总质量 730.00 kg
长度 0.30 m
直径 4.10 m
跨度 29.00 m
形状 Box + pan
制造商 SPXS
平台类型 Starlink V2M
阶段状态 In Orbit
所有者/国家 SPXS/US

大型星座

Loading constellations...